Location: Iesi
(43.5167°N, 13.2333°E)
Time: 18:24:39
(UTC+00:00)

Meteor 1-18 Rocket - Pass Details

Date: 08 August 2020
Orbit: 836 x 909 km, 81.2° (Epoch: 23 September)

Event Time Altitude Azimuth Distance (km) Brightness Sun altitude
Rises 21:00:45 0° 349° (NNW) 3,425 8.5 -23.4°
Reaches altitude 10° 21:03:11 10° 348° (NNW) 2,477 7.5 -23.7°
Maximum altitude 21:08:48 84° 262° (W) 849 4.1 -24.3°
Enters shadow 21:09:56 58° 181° (S) 970 4.2 -24.4°
